Location: Newark
(30.0333°N, 31.2167°E)
Time: 03:26:24
(UTC+00:00)

Tiros 1 despin weight - Pass Details

Date: 20 January 2020
Orbit: 594 x 642 km, 48.2° (Epoch: 17 February)

Event Time Altitude Azimuth Distance (km) Brightness Sun altitude
Rises 16:49:21 0° 319° (NW) 2,934 ? -19.0°
Reaches altitude 10° 16:51:52 10° 328° (NNW) 2,028 ? -19.5°
Enters shadow 16:55:52 34° 26° (NNE) 1,047 ? -20.3°
Maximum altitude 16:56:09 35° 34° (NE) 1,041 - -20.4°
Drops below altitude 10° 17:00:25 10° 100° (E) 2,024 - -21.3°
Sets 17:02:54 0° 109° (ESE) 2,929 - -21.8°
